TimeEDT,TemperatureF,Dew PointF,Humidity,Sea Level PressureIn,VisibilityMPH,Wind Direction,Wind SpeedMPH,Gust SpeedMPH,PrecipitationIn,Events,Conditions,WindDirDegrees,DateUTC
12:02 AM,62.6,57.2,82,29.91,8.0,Calm,Calm,-,N/A,,Partly Cloudy,0,2013-06-08 04:02:00
12:53 AM,63.0,57.0,81,29.89,9.0,Calm,Calm,-,N/A,,Clear,0,2013-06-08 04:53:00
1:53 AM,62.1,57.0,84,29.87,9.0,Calm,Calm,-,N/A,,Clear,0,2013-06-08 05:53:00
2:53 AM,61.0,57.0,87,29.87,8.0,Calm,Calm,-,N/A,,Clear,0,2013-06-08 06:53:00
3:53 AM,60.1,57.0,90,29.87,7.0,Calm,Calm,-,N/A,,Clear,0,2013-06-08 07:53:00
4:53 AM,60.1,55.9,86,29.88,7.0,Calm,Calm,-,N/A,,Clear,0,2013-06-08 08:53:00
5:53 AM,59.0,55.9,90,29.90,6.0,Calm,Calm,-,N/A,,Clear,0,2013-06-08 09:53:00
6:53 AM,57.9,55.9,93,29.93,5.0,Calm,Calm,-,N/A,,Partly Cloudy,0,2013-06-08 10:53:00
7:53 AM,61.0,57.0,87,29.93,7.0,Calm,Calm,-,N/A,,Partly Cloudy,0,2013-06-08 11:53:00
8:53 AM,64.0,57.9,80,29.96,9.0,Calm,Calm,-,N/A,,Mostly Cloudy,0,2013-06-08 12:53:00
9:53 AM,66.0,59.0,78,29.98,10.0,Calm,Calm,-,N/A,,Mostly Cloudy,0,2013-06-08 13:53:00
10:21 AM,66.2,59.0,78,30.01,10.0,Calm,Calm,-,N/A,,Overcast,0,2013-06-08 14:21:00
10:53 AM,70.0,61.0,73,29.99,10.0,Calm,Calm,-,N/A,,Overcast,0,2013-06-08 14:53:00
11:43 AM,71.6,60.8,69,30.03,10.0,Calm,Calm,-,N/A,,Mostly Cloudy,0,2013-06-08 15:43:00
11:53 AM,73.9,62.1,66,30.00,10.0,Calm,Calm,-,N/A,,Mostly Cloudy,0,2013-06-08 15:53:00
12:25 PM,71.6,60.8,69,30.03,10.0,SE,3.5,-,N/A,,Overcast,130,2013-06-08 16:25:00
12:49 PM,73.4,60.8,65,30.04,10.0,Calm,Calm,-,N/A,,Mostly Cloudy,0,2013-06-08 16:49:00
12:53 PM,73.9,61.0,64,30.00,10.0,Calm,Calm,-,N/A,,Overcast,0,2013-06-08 16:53:00
1:53 PM,75.0,61.0,62,29.99,10.0,Calm,Calm,-,N/A,,Scattered Clouds,0,2013-06-08 17:53:00
2:53 PM,78.1,60.1,54,29.98,10.0,Calm,Calm,-,N/A,,Mostly Cloudy,0,2013-06-08 18:53:00
3:53 PM,75.0,60.1,60,29.99,10.0,SSE,3.5,-,N/A,,Overcast,160,2013-06-08 19:53:00
4:53 PM,78.1,60.1,54,29.98,10.0,Calm,Calm,-,N/A,,Clear,0,2013-06-08 20:53:00
5:53 PM,79.0,62.1,56,29.97,10.0,Calm,Calm,-,N/A,,Partly Cloudy,0,2013-06-08 21:53:00
6:53 PM,77.0,60.1,56,29.98,10.0,Calm,Calm,-,N/A,,Clear,0,2013-06-08 22:53:00
7:53 PM,77.0,61.0,58,30.00,10.0,Calm,Calm,-,N/A,,Clear,0,2013-06-08 23:53:00
8:53 PM,73.9,59.0,59,30.01,10.0,Calm,Calm,-,N/A,,Partly Cloudy,0,2013-06-09 00:53:00
9:53 PM,73.0,60.1,64,30.03,10.0,Calm,Calm,-,N/A,,Mostly Cloudy,0,2013-06-09 01:53:00
10:53 PM,73.0,61.0,66,30.05,10.0,Calm,Calm,-,N/A,,Overcast,0,2013-06-09 02:53:00
11:53 PM,72.0,60.1,66,30.05,10.0,Calm,Calm,-,N/A,,Overcast,0,2013-06-09 03:53:00